Hourly Data Report for October 09, 2013

All times are specified in Local Standard Time (LST). Add 1 hour to adjust for Daylight Saving Time where and when it is observed.

TORONTO INTL A
ONTARIO

43°40'36.000" N
79°37'50.000" W
173.40 m
6158731
71624
YYZ

Download Data

Hourly Data (October 2013)
Hourly Data Report for October 9, 2013
Temp Definition
°C
Dew Point Temp Definition
°C
Rel Hum Definition
%
Wind Dir Definition
10's deg

Wind Spd Definition
km/h
Visibility Definition
km
Stn Press Definition
kPa
Hmdx Definition


Wind Chill Definition


Weather Definition


TIME
00:00 Legend Double Dagger 11.8 8.5 80 15 5 24.1 100.61     LegendNANA
01:00 Legend Double Dagger 10.7 7.6 81 9 5 24.1 100.64     Mainly Clear
02:00 Legend Double Dagger 8.6 6.6 87 29 2 24.1 100.65     LegendNANA
03:00 Legend Double Dagger 7.3 5.9 91 1 6 24.1 100.66     LegendNANA
04:00 Legend Double Dagger 7.3 5.8 90 36 2 24.1 100.67     Clear
05:00 Legend Double Dagger 7.2 5.8 91 36 4 24.1 100.69     LegendNANA
06:00 Legend Double Dagger 7.6 5.9 89 1 7 24.1 100.73     LegendNANA
07:00 Legend Double Dagger 8.1 6.4 89 36 4 24.1 100.74     Clear
08:00 Legend Double Dagger 10.5 8.1 85 33 3 24.1 100.78     LegendNANA
09:00 Legend Double Dagger 14.1 10.4 78 11 7 24.1 100.80     LegendNANA
10:00 Legend Double Dagger 16.1 10.5 69 14 12 24.1 100.81     Clear
11:00 Legend Double Dagger 16.3 8.6 60 14 19 24.1 100.80     LegendNANA
12:00 Legend Double Dagger 16.6 7.9 56 11 16 24.1 100.75     LegendNANA
13:00 Legend Double Dagger 17.6 8.3 54 14 13 24.1 100.68     Clear
14:00 Legend Double Dagger 17.4 6.7 49 16 17 24.1 100.61     LegendNANA
15:00 Legend Double Dagger 17.1 5.2 45 16 10 24.1 100.55     LegendNANA
16:00 Legend Double Dagger 16.7 7.7 55 12 12 24.1 100.54     Clear
17:00 Legend Double Dagger 15.5 9.2 66 13 12 24.1 100.54     LegendNANA
18:00 Legend Double Dagger 13.7 9.2 74 12 10 24.1 100.52     LegendNANA
19:00 Legend Double Dagger 13.1 9.6 79 10 8 24.1 100.50     Clear
20:00 Legend Double Dagger 12.7 9.6 81 7 8 24.1 100.52     LegendNANA
21:00 Legend Double Dagger 12.6 9.6 82 5 5 24.1 100.50     LegendNANA
22:00 Legend Double Dagger 12.6 9.6 82 3 8 24.1 100.49     Clear
23:00 Legend Double Dagger 10.4 8.5 88 1 10 24.1 100.46     LegendNANA

Notes on Data Quality.

Legend

  • E = Estimated
  • M = Missing
  • NA = Not Available
  • ‡ = Partner data that is not subject to review by the National Climate Archives
Date modified: